PAL312 RPLL-VHHX

Flight info

Callsign PAL312
Flight time 0h 57m
Altitude 36000
Route CAB2R CAB A461 NOMAN
Aircraft B744/H-SDE3FGHIM1M2RWXY/LB1

Departure

Time 2026-04-30 06:48
Airport Ninoy Aquino International Airport (RPLL)

Arrival

Time 2026-04-30 07:46
Airport Hong Kong International Airport Kai Tak (VHHX)
Time Latitude Longitude Altitude Speed Heading
2026-04-30 06:34 14.50333 121.00418 88 ft 0 kts 21°
2026-04-30 06:42 14.50329 121.00417 88 ft 3 kts 22°
2026-04-30 06:42 14.50306 121.00408 88 ft 3 kts 20°
2026-04-30 06:42 14.50283 121.00399 88 ft 3 kts 20°
2026-04-30 06:43 14.50262 121.00395 88 ft 3 kts 347°
2026-04-30 06:43 14.50249 121.00403 88 ft 3 kts 278°
2026-04-30 06:43 14.50256 121.00423 88 ft 3 kts 239°
2026-04-30 06:43 14.50261 121.00433 88 ft 0 kts 240°
2026-04-30 06:45 14.50255 121.00423 88 ft 5 kts 239°
2026-04-30 06:45 14.50230 121.00375 88 ft 8 kts 240°
2026-04-30 06:45 14.50189 121.00328 88 ft 10 kts 187°
2026-04-30 06:46 14.50131 121.00341 88 ft 7 kts 208°
2026-04-30 06:46 14.50085 121.00265 88 ft 20 kts 240°
2026-04-30 06:46 14.49999 121.00110 88 ft 32 kts 239°
2026-04-30 06:46 14.49927 120.99986 88 ft 15 kts 223°
2026-04-30 06:47 14.49865 120.99975 88 ft 8 kts 152°
2026-04-30 06:47 14.49801 121.00018 88 ft 8 kts 118°
2026-04-30 06:47 14.49808 121.00055 88 ft 0 kts 61°
2026-04-30 06:47 14.49831 121.00097 88 ft 21 kts 61°
2026-04-30 06:48 14.49956 121.00321 88 ft 51 kts 60°
2026-04-30 06:48 14.50267 121.00884 88 ft 135 kts 60°
2026-04-30 06:48 14.50871 121.01965 211 ft 202 kts 62°
2026-04-30 06:48 14.51590 121.03260 1178 ft 210 kts 62°
2026-04-30 06:49 14.52255 121.04472 2808 ft 185 kts 62°
2026-04-30 06:49 14.52923 121.05682 3746 ft 204 kts 62°
2026-04-30 06:49 14.53596 121.06898 4234 ft 226 kts 62°
2026-04-30 06:49 14.54420 121.08380 4647 ft 256 kts 61°
2026-04-30 06:50 14.55376 121.09989 5542 ft 265 kts 52°
2026-04-30 06:50 14.56840 121.11172 6605 ft 275 kts 27°
2026-04-30 06:50 14.58712 121.11643 7682 ft 280 kts
2026-04-30 06:50 14.60691 121.11610 8668 ft 291 kts 357°
2026-04-30 06:51 14.62719 121.11415 9707 ft 295 kts 356°
2026-04-30 06:51 14.64789 121.11196 10636 ft 306 kts 356°
2026-04-30 06:51 14.66981 121.10961 11181 ft 331 kts 355°
2026-04-30 06:51 14.69396 121.10704 11424 ft 364 kts 355°
2026-04-30 06:52 14.72016 121.10427 11648 ft 396 kts 355°
2026-04-30 06:52 14.74832 121.10130 12316 ft 410 kts 355°
2026-04-30 06:52 14.77698 121.09828 13201 ft 419 kts 355°
2026-04-30 06:52 14.80624 121.09520 14104 ft 425 kts 355°
2026-04-30 06:53 14.83585 121.09209 14974 ft 431 kts 355°
2026-04-30 06:53 14.86592 121.08892 15810 ft 437 kts 355°
2026-04-30 06:53 14.89638 121.08572 16619 ft 443 kts 355°
2026-04-30 06:53 14.92715 121.08249 17400 ft 448 kts 355°
2026-04-30 06:54 14.95837 121.07920 18159 ft 453 kts 355°
2026-04-30 06:54 14.98988 121.07589 18892 ft 458 kts 355°
2026-04-30 06:54 15.02178 121.07253 19596 ft 463 kts 355°
2026-04-30 06:54 15.05405 121.06914 20227 ft 469 kts 355°
2026-04-30 06:55 15.08676 121.06569 20879 ft 474 kts 355°
2026-04-30 06:55 15.11972 121.06222 21499 ft 479 kts 354°
2026-04-30 06:55 15.15302 121.05872 22099 ft 484 kts 354°
2026-04-30 06:55 15.18668 121.05518 22688 ft 488 kts 354°
2026-04-30 06:56 15.22023 121.05165 23241 ft 493 kts 354°
2026-04-30 06:56 15.25453 121.04803 23813 ft 498 kts 354°
2026-04-30 06:56 15.28908 121.04438 24367 ft 502 kts 354°
2026-04-30 06:56 15.32398 121.04070 24913 ft 506 kts 354°
2026-04-30 06:57 15.35913 121.03699 25408 ft 511 kts 354°
2026-04-30 06:57 15.39466 121.03323 25872 ft 515 kts 354°
2026-04-30 06:57 15.43047 121.02945 26334 ft 519 kts 354°
2026-04-30 06:57 15.46616 121.02379 26757 ft 521 kts 345°
2026-04-30 06:58 15.50057 121.01185 27175 ft 523 kts 338°
2026-04-30 06:58 15.53408 120.99701 27580 ft 526 kts 334°
2026-04-30 06:58 15.56705 120.98036 27973 ft 528 kts 332°
2026-04-30 06:58 15.59969 120.96269 28344 ft 530 kts 331°
2026-04-30 06:59 15.63225 120.94485 28874 ft 528 kts 331°
2026-04-30 06:59 15.66475 120.92725 29504 ft 525 kts 331°
2026-04-30 06:59 15.69707 120.90988 30083 ft 523 kts 331°
2026-04-30 06:59 15.72937 120.89258 30656 ft 520 kts 331°
2026-04-30 07:00 15.76145 120.87543 31238 ft 518 kts 331°
2026-04-30 07:00 15.79330 120.85845 31955 ft 511 kts 330°
2026-04-30 07:00 15.82488 120.84166 32500 ft 510 kts 330°
2026-04-30 07:00 15.85647 120.82485 32887 ft 511 kts 330°
2026-04-30 07:01 15.88809 120.80800 33322 ft 510 kts 330°
2026-04-30 07:01 15.91963 120.79119 33763 ft 510 kts 330°
2026-04-30 07:01 15.95118 120.77436 34168 ft 509 kts 330°
2026-04-30 07:01 15.98268 120.75756 34555 ft 509 kts 330°
2026-04-30 07:02 16.01422 120.74072 34921 ft 509 kts 330°
2026-04-30 07:02 16.04571 120.72390 35265 ft 509 kts 330°
2026-04-30 07:02 16.07723 120.70706 35592 ft 509 kts 330°
2026-04-30 07:02 16.10868 120.69026 35904 ft 509 kts 330°
2026-04-30 07:03 16.14018 120.67341 36203 ft 509 kts 330°
2026-04-30 07:03 16.17163 120.65659 36562 ft 508 kts 330°
2026-04-30 07:03 16.20300 120.63981 36949 ft 506 kts 330°
2026-04-30 07:03 16.23426 120.62308 37330 ft 504 kts 330°
2026-04-30 07:04 16.26538 120.60642 37722 ft 502 kts 330°
2026-04-30 07:04 16.29646 120.58977 37857 ft 503 kts 330°
2026-04-30 07:04 16.32755 120.57312 37908 ft 503 kts 330°
2026-04-30 07:04 16.35855 120.55650 38271 ft 501 kts 330°
2026-04-30 07:05 16.42024 120.52342 39026 ft 497 kts 330°
2026-04-30 07:05 16.45061 120.50715 39360 ft 495 kts 330°
2026-04-30 07:05 16.48122 120.49076 39677 ft 494 kts 330°
2026-04-30 07:06 16.54232 120.45795 39367 ft 494 kts 330°
2026-04-30 07:06 16.57294 120.44148 38970 ft 496 kts 330°
2026-04-30 07:06 16.60370 120.42493 38568 ft 499 kts 330°
2026-04-30 07:07 16.63278 120.40928 38240 ft 500 kts 330°
2026-04-30 07:07 16.66307 120.39297 38008 ft 500 kts 330°
2026-04-30 07:07 16.72324 120.35685 37916 ft 498 kts 320°
2026-04-30 07:08 16.77451 120.30857 37906 ft 496 kts 312°
2026-04-30 07:08 16.82178 120.25649 37905 ft 493 kts 310°
2026-04-30 07:09 16.86869 120.20420 37905 ft 493 kts 311°
2026-04-30 07:09 16.91572 120.15226 37905 ft 491 kts 310°
2026-04-30 07:10 16.96259 120.10061 37905 ft 490 kts 310°
2026-04-30 07:10 17.00959 120.04912 37905 ft 490 kts 310°
2026-04-30 07:11 17.05653 119.99757 37905 ft 489 kts 310°
2026-04-30 07:11 17.10351 119.94587 37905 ft 491 kts 311°
2026-04-30 07:12 17.15059 119.89403 37905 ft 492 kts 311°
2026-04-30 07:12 17.19737 119.84247 37905 ft 491 kts 311°
2026-04-30 07:13 17.24468 119.79027 37905 ft 491 kts 311°
2026-04-30 07:13 17.29167 119.73840 37905 ft 491 kts 311°
2026-04-30 07:14 17.33830 119.68686 37905 ft 491 kts 311°
2026-04-30 07:14 17.38524 119.63496 37905 ft 491 kts 311°
2026-04-30 07:15 17.43219 119.58300 37905 ft 491 kts 311°
2026-04-30 07:15 17.47914 119.53100 37905 ft 492 kts 310°
2026-04-30 07:16 17.86686 119.10008 37892 ft 491 kts 310°
2026-04-30 07:16 18.61312 118.26215 37929 ft 490 kts 310°
2026-04-30 07:17 19.35477 117.41730 37944 ft 488 kts 309°
2026-04-30 07:17 20.08542 116.57227 37719 ft 476 kts 309°
2026-04-30 07:18 20.44184 116.15969 37970 ft 476 kts 309°
2026-04-30 07:18 21.03777 115.46022 37935 ft 486 kts 309°
2026-04-30 07:19 21.08326 115.40645 37906 ft 487 kts 309°
2026-04-30 07:19 21.12104 115.36178 37886 ft 486 kts 309°
2026-04-30 07:19 21.14367 115.33501 37541 ft 484 kts 309°
2026-04-30 07:20 21.16617 115.30838 36827 ft 482 kts 309°
2026-04-30 07:20 21.18869 115.28171 35987 ft 482 kts 309°
2026-04-30 07:20 21.21120 115.25504 35156 ft 482 kts 309°
2026-04-30 07:20 21.23364 115.22844 34342 ft 481 kts 309°
2026-04-30 07:21 21.25606 115.20184 33506 ft 480 kts 309°
2026-04-30 07:21 21.27845 115.17527 32644 ft 480 kts 309°
2026-04-30 07:21 21.30080 115.14874 31759 ft 480 kts 309°
2026-04-30 07:21 21.32319 115.12215 30837 ft 481 kts 309°
2026-04-30 07:22 21.37007 115.06643 29014 ft 515 kts 309°
2026-04-30 07:22 21.39398 115.03797 28179 ft 510 kts 309°
2026-04-30 07:22 21.41755 115.00993 27365 ft 503 kts 309°
2026-04-30 07:23 21.44083 114.98220 26579 ft 496 kts 309°
2026-04-30 07:23 21.46328 114.95555 26162 ft 480 kts 309°
2026-04-30 07:23 21.48538 114.92932 25591 ft 469 kts 309°
2026-04-30 07:23 21.50741 114.90307 24670 ft 466 kts 309°
2026-04-30 07:24 21.52861 114.87775 23953 ft 460 kts 309°
2026-04-30 07:24 21.54986 114.85235 23235 ft 453 kts 309°
2026-04-30 07:24 21.57078 114.82733 22524 ft 447 kts 309°
2026-04-30 07:24 21.59168 114.80231 21808 ft 442 kts 309°
2026-04-30 07:25 21.61209 114.77787 21105 ft 436 kts 309°
2026-04-30 07:25 21.63228 114.75370 20404 ft 431 kts 309°
2026-04-30 07:25 21.65195 114.73016 19719 ft 426 kts 309°
2026-04-30 07:25 21.67158 114.70664 19028 ft 422 kts 309°
2026-04-30 07:26 21.69099 114.68307 18333 ft 417 kts 309°
2026-04-30 07:26 21.71001 114.65977 17646 ft 413 kts 309°
2026-04-30 07:26 21.72882 114.63665 16964 ft 408 kts 309°
2026-04-30 07:26 21.74742 114.61377 16289 ft 404 kts 309°
2026-04-30 07:27 21.76581 114.59112 15622 ft 400 kts 309°
2026-04-30 07:27 21.78398 114.56874 15015 ft 394 kts 309°
2026-04-30 07:27 21.80166 114.54694 14877 ft 377 kts 308°
2026-04-30 07:27 21.81855 114.52612 14750 ft 361 kts 308°
2026-04-30 07:28 21.83474 114.50616 14589 ft 347 kts 308°
2026-04-30 07:28 21.85033 114.48693 14433 ft 334 kts 308°
2026-04-30 07:28 21.86532 114.46845 14280 ft 321 kts 308°
2026-04-30 07:28 21.87973 114.45068 14134 ft 310 kts 308°
2026-04-30 07:29 21.89364 114.43350 13965 ft 299 kts 308°
2026-04-30 07:29 21.90715 114.41684 13720 ft 292 kts 308°
2026-04-30 07:29 21.92044 114.40044 13482 ft 291 kts 308°
2026-04-30 07:29 21.93382 114.38393 13243 ft 292 kts 308°
2026-04-30 07:30 21.96036 114.35112 12759 ft 290 kts 308°
2026-04-30 07:30 21.97341 114.33498 12521 ft 289 kts 308°
2026-04-30 07:30 21.98660 114.31867 12279 ft 288 kts 308°
2026-04-30 07:31 21.99972 114.30242 12040 ft 287 kts 307°
2026-04-30 07:31 22.01289 114.28623 11801 ft 287 kts 308°
2026-04-30 07:31 22.02604 114.27010 11563 ft 286 kts 308°
2026-04-30 07:31 22.03912 114.25401 11323 ft 285 kts 308°
2026-04-30 07:32 22.05216 114.23790 11084 ft 284 kts 307°
2026-04-30 07:32 22.06514 114.22184 10847 ft 284 kts 307°
2026-04-30 07:32 22.07807 114.20581 10612 ft 283 kts 307°
2026-04-30 07:32 22.09094 114.18985 10362 ft 280 kts 307°
2026-04-30 07:33 22.10356 114.17420 10114 ft 273 kts 307°
2026-04-30 07:33 22.11600 114.15874 9709 ft 273 kts 307°
2026-04-30 07:33 22.12845 114.14329 9343 ft 271 kts 308°
2026-04-30 07:33 22.14079 114.12795 8941 ft 271 kts 308°
2026-04-30 07:34 22.15315 114.11259 8590 ft 269 kts 308°
2026-04-30 07:34 22.16532 114.09747 8253 ft 266 kts 308°
2026-04-30 07:34 22.17741 114.08244 8113 ft 264 kts 308°
2026-04-30 07:34 22.18911 114.06791 8046 ft 254 kts 308°
2026-04-30 07:35 22.20039 114.05391 8004 ft 240 kts 308°
2026-04-30 07:35 22.21095 114.04047 7988 ft 231 kts 303°
2026-04-30 07:35 22.21712 114.02481 7993 ft 227 kts 282°
2026-04-30 07:35 22.21905 114.00840 7853 ft 216 kts 274°
2026-04-30 07:36 22.21925 113.99241 7548 ft 212 kts 269°
2026-04-30 07:36 22.21853 113.97657 7177 ft 207 kts 266°
2026-04-30 07:36 22.21768 113.96154 6983 ft 194 kts 267°
2026-04-30 07:36 22.21705 113.94751 6703 ft 182 kts 267°
2026-04-30 07:37 22.21652 113.93359 6476 ft 189 kts 268°
2026-04-30 07:37 22.21599 113.91951 6243 ft 187 kts 268°
2026-04-30 07:37 22.21547 113.90546 6054 ft 188 kts 268°
2026-04-30 07:37 22.21694 113.89149 5885 ft 190 kts 290°
2026-04-30 07:38 22.22568 113.88119 5508 ft 190 kts 325°
2026-04-30 07:38 22.23855 113.87743 5311 ft 195 kts 352°
2026-04-30 07:38 22.25187 113.88015 5292 ft 197 kts 14°
2026-04-30 07:38 22.26454 113.88644 5254 ft 204 kts 24°
2026-04-30 07:39 22.27660 113.89428 5048 ft 199 kts 30°
2026-04-30 07:39 22.28777 113.90306 4900 ft 200 kts 36°
2026-04-30 07:39 22.29806 113.91315 4755 ft 199 kts 41°
2026-04-30 07:39 22.30796 113.92351 4617 ft 198 kts 42°
2026-04-30 07:40 22.31759 113.93408 4537 ft 198 kts 47°
2026-04-30 07:40 22.32304 113.94753 4507 ft 200 kts 78°
2026-04-30 07:40 22.32345 113.96253 4305 ft 201 kts 89°
2026-04-30 07:40 22.32296 113.97753 4018 ft 199 kts 90°
2026-04-30 07:41 22.32268 113.99229 3738 ft 193 kts 90°
2026-04-30 07:41 22.32232 114.00640 3463 ft 182 kts 89°
2026-04-30 07:41 22.32240 114.01970 3220 ft 174 kts 86°
2026-04-30 07:41 22.32297 114.03263 2987 ft 170 kts 85°
2026-04-30 07:42 22.32375 114.04521 2761 ft 167 kts 84°
2026-04-30 07:42 22.32456 114.05772 2529 ft 167 kts 84°
2026-04-30 07:42 22.32534 114.06978 2314 ft 158 kts 84°
2026-04-30 07:42 22.32610 114.08142 2120 ft 150 kts 84°
2026-04-30 07:43 22.32682 114.09258 1949 ft 148 kts 84°
2026-04-30 07:43 22.32754 114.10358 1711 ft 146 kts 84°
2026-04-30 07:43 22.32823 114.11436 1512 ft 146 kts 83°
2026-04-30 07:43 22.32894 114.12523 1316 ft 146 kts 83°
2026-04-30 07:44 22.32965 114.13615 1120 ft 146 kts 82°
2026-04-30 07:44 22.33035 114.14707 927 ft 146 kts 82°
2026-04-30 07:44 22.33106 114.15801 739 ft 146 kts 82°
2026-04-30 07:44 22.33170 114.16894 557 ft 146 kts 82°
2026-04-30 07:45 22.33175 114.17989 388 ft 147 kts 95°
2026-04-30 07:45 22.32771 114.19005 142 ft 150 kts 128°
2026-04-30 07:45 22.32058 114.19813 16 ft 141 kts 130°
2026-04-30 07:45 22.31475 114.20478 14 ft 89 kts 134°
2026-04-30 07:46 22.31151 114.20843 13 ft 47 kts 133°
2026-04-30 07:46 22.31001 114.21012 13 ft 13 kts 134°
2026-04-30 07:46 22.30997 114.21071 13 ft 8 kts 49°
2026-04-30 07:46 22.31035 114.21103 13 ft 7 kts 12°
2026-04-30 07:47 22.31074 114.21083 13 ft 6 kts 315°
2026-04-30 07:47 22.31113 114.21040 13 ft 11 kts 315°
2026-04-30 07:47 22.31180 114.20965 13 ft 16 kts 313°
2026-04-30 07:47 22.31265 114.20868 13 ft 20 kts 313°
2026-04-30 07:48 22.31368 114.20750 13 ft 24 kts 314°
2026-04-30 07:48 22.31495 114.20606 13 ft 28 kts 313°
2026-04-30 07:48 22.31621 114.20464 13 ft 27 kts 313°
2026-04-30 07:48 22.31749 114.20319 13 ft 24 kts 314°
2026-04-30 07:49 22.31872 114.20180 13 ft 25 kts 313°
2026-04-30 07:49 22.31996 114.20039 13 ft 26 kts 315°
2026-04-30 07:49 22.32112 114.19914 13 ft 18 kts 315°
2026-04-30 07:49 22.32197 114.19821 13 ft 19 kts 314°
2026-04-30 07:50 22.32296 114.19708 13 ft 16 kts 315°
2026-04-30 07:50 22.32370 114.19723 13 ft 14 kts 44°
2026-04-30 07:50 22.32450 114.19805 13 ft 18 kts 43°
2026-04-30 07:50 22.32543 114.19900 13 ft 15 kts 43°
2026-04-30 07:51 22.32625 114.19984 13 ft 17 kts 43°
2026-04-30 07:51 22.32709 114.20036 13 ft 10 kts 331°
2026-04-30 07:51 22.32771 114.19969 13 ft 15 kts 314°
2026-04-30 07:51 22.32858 114.19905 13 ft 16 kts 313°
2026-04-30 07:52 22.32934 114.19818 13 ft 15 kts 308°
2026-04-30 07:52 22.32913 114.19752 13 ft 11 kts 224°
2026-04-30 07:52 22.32851 114.19687 13 ft 15 kts 224°
2026-04-30 07:52 22.32795 114.19620 13 ft 5 kts 270°
2026-04-30 07:53 22.32820 114.19584 13 ft 7 kts 312°
2026-04-30 07:53 22.32847 114.19553 13 ft 4 kts 313°
2026-04-30 07:53 22.32854 114.19545 13 ft 0 kts 313°